Home > Weather > Kuching > Past weeks

Flag for Malaysia Weather for the Past 2 Weeks in Kuching, Malaysia

Now
77 °F

Light rain. Partly cloudy.


Feels Like: 78 °F
Forecast: 77 / 85 °F
Wind: No wind

Location: Kuching Airport

Current Time: Feb 11, 2016 at 4:49:35 AM

Latest Report: Feb 11, 2016 at 4:30 AM


Visibility: N/A

Pressure: 29.80 "Hg

Humidity: 100%

Dew point: 77 °F

Location of KuchingLocation

Historic Weather in Kuching — Graph

°F

Kuching Temperature Yesterday

Maximum temperature yesterday: 84 °F (at 1:00 PM)
Minimum temperature yesterday: 73 °F (at 6:30 AM)
Average temperature yesterday: 79 °F

High & Low Weather Summary for the Past Weeks

 TemperatureHumidityPressure
High90 °F (Jan 27, 12:00 PM)100% (Jan 27, 3:00 AM)29.92 "Hg (Jan 27, 3:00 AM)
Low73 °F (Feb 10, 6:30 AM)63% (Jan 27, 12:00 PM)29.71 "Hg (Feb 5, 3:00 PM)
Average80 °F89%29.82 "Hg
* Reported Jan 27 3:00 AM — Feb 11 3:30 AM, Kuching, Weather by CustomWeather, © 2016

Note: Actual official high and low records may vary slightly from our data, if they occured in-between our weather recording intervals... More about our weather records

Advertising

Kuching Weather History for the Previous 24 Hours

 ConditionsComfort  
Time TempWeatherWind HumidityBarometerVisibility
3:30 AM
Thu, Feb 11
77 °FLight rain. Partly cloudy.1 mph100%29.83 "HgN/A
3:00 AM77 °FLight rain. Partly cloudy.1 mph100%29.83 "HgN/A
2:30 AM77 °FLight rain. Partly cloudy.3 mph100%29.83 "HgN/A
2:00 AM77 °FLight rain. Partly cloudy.2 mph100%29.83 "HgN/A
1:30 AM77 °FLight rain. Partly cloudy.3 mph100%29.83 "Hg5 mi
1:00 AM77 °FHeavy rain. Partly cloudy.5 mph100%29.86 "Hg1 mi
12:30 AM77 °FHeavy rain. Partly cloudy.2 mph100%29.86 "Hg1 mi
12:00 AM77 °FHeavy rain. Partly cloudy.5 mph100%29.86 "Hg1 mi
11:30 PM
Wed, Feb 10
77 °FLight rain. Partly cloudy.3 mph100%29.86 "Hg4 mi
11:00 PM79 °FRain. Partly cloudy.2 mph94%29.86 "Hg2 mi
10:30 PM79 °FLight rain. Partly cloudy.5 mph94%29.86 "Hg4 mi
10:00 PM79 °FLight rain. Partly cloudy.6 mph94%29.86 "Hg5 mi
9:30 PM81 °FLight rain. Partly cloudy.3 mph94%29.83 "Hg5 mi
9:00 PM81 °FLight rain. Partly cloudy.3 mph94%29.83 "HgN/A
8:30 PM82 °FPartly cloudy.3 mph89%29.83 "HgN/A
8:00 PM82 °FPartly cloudy.1 mph89%29.83 "HgN/A
7:30 PM82 °FPassing clouds.2 mph89%29.80 "HgN/A
7:00 PM82 °FPassing clouds.2 mph84%29.80 "HgN/A
6:30 PM84 °FBroken clouds.1 mph79%29.77 "HgN/A
6:00 PM84 °FBroken clouds.1 mph84%29.77 "HgN/A
5:30 PM84 °FBroken clouds.2 mph79%29.77 "HgN/A
5:00 PM84 °FBroken clouds.3 mph79%29.77 "HgN/A
4:30 PM84 °FBroken clouds.3 mph79%29.77 "HgN/A
4:00 PM84 °FBroken clouds.3 mph84%29.77 "HgN/A
3:30 PM84 °FPartly sunny.3 mph79%29.77 "HgN/A
3:00 PM84 °FBroken clouds.6 mph79%29.77 "HgN/A
2:30 PM84 °FBroken clouds.6 mph79%29.77 "HgN/A
2:00 PM84 °FBroken clouds.5 mph79%29.80 "HgN/A
1:30 PM84 °FBroken clouds.7 mph79%29.80 "HgN/A
1:00 PM84 °FBroken clouds.7 mph79%29.83 "HgN/A
12:30 PM82 °FBroken clouds.7 mph84%29.83 "HgN/A
12:00 PM82 °FBroken clouds.5 mph84%29.86 "HgN/A
11:30 AM81 °FBroken clouds.6 mph89%29.86 "HgN/A
11:00 AM81 °FBroken clouds.6 mph84%29.86 "HgN/A
10:30 AM79 °FBroken clouds.6 mph89%29.86 "HgN/A
10:00 AM79 °FBroken clouds.6 mph89%29.86 "HgN/A
9:30 AM79 °FPartly sunny.8 mph89%29.86 "HgN/A
8:30 AM77 °FPartly sunny.3 mph94%29.86 "HgN/A
8:00 AM75 °FPartly sunny.1 mph94%29.83 "HgN/A
7:30 AM75 °FBroken clouds.2 mph94%29.83 "HgN/A
7:00 AM73 °FPartly sunny.1 mph100%29.80 "HgN/A
6:30 AM73 °FPartly cloudy.3 mph100%29.80 "HgN/A
5:30 AM75 °FPartly cloudy.5 mph94%29.80 "HgN/A
5:00 AM75 °FPartly cloudy.2 mph94%29.80 "HgN/A
4:30 AM75 °FPartly cloudy.1 mph94%29.77 "HgN/A
4:00 AM75 °FPartly cloudy.2 mph100%29.77 "HgN/A
Weather by CustomWeather, © 2016

See weather overviewHow to use our weather pages